Regional Weather Roundup
Issued by NWS Glasgow, MT

Home | Current Version | Previous Version | Text Only | Print | Product List | Glossary On
Versions: 1 2 3 4 5 6 7 8 9 10 11 12 13 14 15 16 17 18 19 20 21 22 23 24 25 26 27
000
ASUS45 KGGW 261115
RWRGGW
HOURLY REGIONAL WEATHER ROUNDUP FOR NORTHEAST MONTANA
NATIONAL WEATHER SERVICE GLASGOW MONTANA
400 AM MST SUN FEB 26 2017

NOTE: "FAIR" INDICATES FEW OR NO CLOUDS BELOW 12,000 FEET WITH NO
SIGNIFICANT WEATHER AND/OR OBSTRUCTIONS TO VISISBILITY.

NORTHEAST MONTANA


CITY           SKY/WX    TMP DP  RH WIND       PRES   REMARKS
GLASGOW        CLOUDY    17  14  88 NE5       29.65R
PLENTYWOOD       N/A     11  10  96 CALM        N/A
WOLF POINT     CLOUDY    11   7  84 CALM      29.68S
JORDAN           N/A     27  19  72 W20G26    29.66R
WINNETT          N/A     29  21  72 W9G21       N/A
SIDNEY         CLOUDY    16  13  88 E3        29.69S
GLENDIVE       FOG       20  18  92 CALM      29.65F VSB 1/2
MALTA            N/A     23  23 100 CALM        N/A
SCOBEY           N/A     10   1  67 CALM      29.65F HAZE

FORT PECK REPORTS


CITY           SKY/WX    TMP DP  RH WIND       PRES   REMARKS
FORT PECK        N/A     17  17 100 SE5         N/A
THE PINES        N/A     18  17  96 CALM        N/A

SOUTHEAST MONTANA


CITY           SKY/WX    TMP DP  RH WIND       PRES   REMARKS
BILLINGS       CLOUDY    24  11  57 SW13      29.72R
MILES CITY     CLOUDY    26  16  65 W12       29.68S
BAKER          CLEAR     21  13  71 W13       29.65R
LIVINGSTON     CLOUDY    22   5  48 SW23G35   29.72F

CENTRAL MONTANA


CITY           SKY/WX    TMP DP  RH WIND       PRES   REMARKS
HAVRE          LGT SNOW  26  22  84 NW16      29.69R FOG
LEWISTOWN      CLOUDY    24  15  68 W15       29.66S
GREAT FALLS    CLOUDY    26  17  68 NW10      29.71S
CUT BANK       LGT SNOW  21  19  92 N10       29.69S FOG
HELENA         CLOUDY    27  16  63 W5        29.74F
BUTTE          CLOUDY    21   7  54 SW3       29.70F
BOZEMAN        CLOUDY    22  17  81 E10       29.77F

WESTERN MONTANA


CITY           SKY/WX    TMP DP  RH WIND       PRES   REMARKS
MISSOULA       CLOUDY    25  23  92 CALM      29.78F
KALISPELL      NOT AVBL

NORTH DAKOTA


CITY           SKY/WX    TMP DP  RH WIND       PRES   REMARKS
WILLISTON      CLOUDY    10   8  92 CALM      29.71S
DICKINSON      FLURRIES  14  10  84 E6        29.64S
MINOT          CLOUDY     0  -5  79 SW8       29.73S
BISMARCK       CLEAR     12   7  80 NW3       29.75S

SOUTHERN SASKATCHEWAN


CITY           SKY/WX    TMP DP  RH WIND       PRES   REMARKS
REGINA         CLOUDY    10   7  85 S3        29.66F
ESTEVAN        CRYSTALS  -2  -6  84 SW6       29.70S
SWIFT CURRENT  LGT SNOW  16  16 100 W5        29.61S





USA.gov is the U.S. government's official web portal to all federal, state and local government web resources and services.